Location: Berg
(47.2344°N, 9.5296°E)
Time: 14:14:21
(UTC+00:00)

Cosmos 44 - Pass Details

Date: 14 May 2021
Orbit: 571 x 791 km, 65.1° (Epoch: 11 June)

Event Time Altitude Azimuth Distance (km) Brightness Sun altitude
Rises 21:53:12 0° 317° (NW) 3,292 8.0 -21.2°
Reaches altitude 10° 21:55:48 10° 310° (NW) 2,348 6.9 -21.4°
Maximum altitude 22:00:45 38° 244° (WSW) 1,168 4.3 -21.7°
Enters shadow 22:01:57 33° 215° (SW) 1,258 4.3 -21.7°
